Regional Weather Roundup
Issued by NWS

Home | Current Version | Previous Version | Graphics & Text | Print | Product List | Glossary On
Versions: 1 2 3 4 5 6 7 8 9 10 11 12 13 14 15 16 17 18 19 20 21 22 23 24 25 26 27 28 29 30 31 32 33 34 35 36 37 38 39 40 41 42 43 44 45 46 47 48 49 50
000
ASUS45 KTFX 211704
RWRMT
MONTANA HOURLY WEATHER ROUNDUP
NATIONAL WEATHER SERVICE GREAT FALLS MT
1104 AM MDT THU AUG 21 2014

NOTE: "FAIR" INDICATES FEW OR NO CLOUDS BELOW 12000 FEET WITH NO
SIGNIFICANT WEATHER AND/OR OBSTRUCTIONS TO VISIBILITY.

* THESE STATIONS ARE NOT UNDER NWS QUALITY CONTROL. THEY DO NOT
   REPORT WEATHER SUCH AS PRECIPITATION OR FOG.

MTZ001>007-043-211800-
WEST OF THE DIVIDE
CITY           SKY/WX    TMP DP  RH WIND       PRES   REMARKS
KALISPELL      LGT RAIN  55  52  90 N10       30.06R
MISSOULA       SUNNY     66  52  61 SE5       30.03F
BUTTE          CLOUDY    55  48  77 CALM      30.12R
MULLAN PASS    PTSUNNY   52  48  86 CALM      30.11R
* ESSEX        N/A       52  49  90 E2         N/A
* LINCOLN      N/A       56  52  87 N3         N/A
* LOOKOUT PASS N/A       57  50  78 NW4        N/A
* POLSON       N/A       55  55 100 N/A        N/A
* RONAN APT    PTCLDY    64  55  73 N13        N/A
* SEELEY LAKE  N/A       60  49  67 SE2        N/A
* THOMP F APT  SUNNY     51  48  90 NE3        N/A
* YAAK HILL    N/A       60  53  78 SE2        N/A
$$

MTZ008-052>055-211800-
SOUTHWEST MONTANA
CITY           SKY/WX    TMP DP  RH WIND       PRES   REMARKS
BOZEMAN        LGT RAIN  55  54  96 W13       30.09R
DILLON         PTCLDY    57  52  83 CALM      30.10S
W YELLOWSTONE  CLOUDY    54  48  80 SW9       30.16S
* THREE FORKS  CLOUDY    55  55 100 N/A        N/A
* BOULDER HILL N/A       50  45  83 N8         N/A
* MONIDA PASS  N/A       53  47  80 NE2        N/A
* RAYNOLDS PAS N/A       52  37  57 S9         N/A
* WHITEHALL    N/A       54  53  96 NE1        N/A
* WISE RIVER   N/A       58  50  75 NE3        N/A
$$

MTZ009>010-012-014-046-048-049-054-211800-
EAST SLOPES AND CENTRAL MONTANA
CITY           SKY/WX    TMP DP  RH WIND       PRES   REMARKS
CUT BANK       RAIN      52  50  93 N8        30.12R VSB 3
GREAT FALLS    CLOUDY    57  52  83 N8        30.09S
HELENA         PTSUNNY   63  50  63 VRB5      30.08S
MALMSTROM AFB  CLOUDY    57  52  83 NW9       30.10S
* CONRAD       PTSUNNY   54  54 100 N/A        N/A
* DEARBORN     N/A       57  52  83 N6         N/A
* EAST GLACIER N/A       48  46  93 NE10G15    N/A
* MONARCH      N/A       53  48  83 NW2        N/A
* PENDROY      N/A       51  50  96 NW9G14     N/A
* ROGERS PASS  N/A       49  48  96 S3         N/A
* SAINT MARY   N/A       49  49 100 E3         N/A
* SWEET GRASS  N/A       54  54 100 NE15G20    N/A
$$

MTZ011-013-016-021-035-040-045-047-050-051-211800-
NORTH CENTRAL MONTANA
CITY           SKY/WX    TMP DP  RH WIND       PRES   REMARKS
HAVRE          CLOUDY    64  55  73 NW8       30.03S
LEWISTOWN      CLOUDY    59  54  84 NW8       30.09R
* CHESTER      N/A       58  51  78 NE16G25    N/A
* DENTON       N/A       60  53  78 W6         N/A
* GEYSER       N/A       58  53  84 W9G14      N/A
* JUDITH GAP   N/A       55  54  96 N12        N/A
* LOMA         N/A       57  55  93 W4         N/A
$$

MTZ017>020-022>027-061-062-211800-
NORTHEAST MONTANA
CITY           SKY/WX    TMP DP  RH WIND       PRES   REMARKS
GLASGOW        CLOUDY    68  59  73 N9        29.98R
GLENDIVE       CLOUDY    68  63  84 CALM      29.97S
JORDAN         CLOUDY   N/A N/A N/A N/A       29.99S
SIDNEY         PTSUNNY   72  63  73 N8        29.95S
WOLF POINT     TSTM      63  61  93 E5        29.98R VSB 3
* BEAVER HILL  N/A       65  62  90 SW3G8      N/A
* CIRCLE       N/A       66  61  84 N7         N/A
* LINDSAY DVD  N/A       68  59  73 E6         N/A
* SACO         N/A       66  60  81 N4         N/A
$$

MTZ028>042-056>058-211800-
SOUTHCENTRAL AND SOUTHEAST MONTANA
CITY           SKY/WX    TMP DP  RH WIND       PRES   REMARKS
BAKER          PTSUNNY   70  61  73 NW6       29.99R
BILLINGS       PTSUNNY   66  55  68 NE9       30.05R
LIVINGSTON     CLOUDY    59  54  84 CALM      30.07S
MILES CITY     CLOUDY    66  55  68 NW6       30.00R
* LAUREL APT   CLOUDY    64  54  70 N/A        N/A
* ROUNDUP APT  CLOUDY    63  55  75 N/A        N/A
* ALZADA       N/A       74  54  50 N6         N/A
* HYSHAM       N/A       62  52  70 W5         N/A
* LAME DEER    N/A       61  53  75 VRB5       N/A
* REED POINT   N/A       68  51  55 E1         N/A
* ROSCOE HILL  N/A       58  50  75 N1         N/A
$$

REGIONAL REPORTS...DAKOTAS
CITY           SKY/WX    TMP DP  RH WIND       PRES   REMARKS
WILLISTON      CLOUDY    66  59  78 N10       29.94R
DICKINSON      PTCLDY    73  61  66 N10       29.92R
BEACH          N/A       66  64  93 W5        29.97S
CROSBY         CLOUDY    64  64 100 NW12G18   29.93S
TIOGA          CLOUDY    63  63 100 NW12      29.96R
WATFORD CITY   PTCLDY    72  59  64 N10G16    29.91S
BISMARCK       PTSUNNY   75  64  69 NW13      29.86S
GRAND FORKS    CLOUDY    75  66  74 S6        29.77R
FARGO          CLOUDY    73  68  84 E6        29.76S
BUFFALO SD     SUNNY     77  55  47 VRB6      29.90S
RAPID CITY     PTCLDY    75  57  54 NE9       29.98S
$$

REGIONAL REPORTS...WYOMING/IDAHO/WASHINGTON
CITY           SKY/WX    TMP DP  RH WIND       PRES   REMARKS
GILLETTE       CLOUDY    70  52  53 VRB6      30.03S
SHERIDAN       PTCLDY    72  50  46 VRB3      30.04R
CODY           CLOUDY    57  52  83 NW6       30.10R
YELLOWSTONE LA CLOUDY    48  45  89 CALM      30.24R
SALMON         PTCLDY    61  52  72 W3        30.07R
MULLAN PASS    PTSUNNY   52  48  86 CALM      30.11S
SAND POINT     CLOUDY    64  54  70 NE8       30.01S
SPOKANE        PTCLDY    66  50  56 SE6       30.00R
$$

REGIONAL REPORTS...SASKATCHEWAN
CITY           SKY/WX    TMP DP  RH WIND       PRES   REMARKS
SWIFT CURRENT  PTSUNNY   61  55  81 NE9       30.03R

$$



USA.gov is the U.S. government's official web portal to all federal, state and local government web resources and services.